Overview Statistics Trail Chart Weather Telemetry Raw packets
 

This is the latest recevied weather packets stored in our database for station/object 4S6DRJ-13. If no packets are shown the sender has not sent any weather packets the latest 10 day(s).

<< 263 264 265 266 267 268 269 >>
Time Temp. Humidity Pressure Rain* Wind** Luminosity Snow
1788081244 31.11° C 68% 1007.7 hPa 0 mm 2.24 m/s, 235° 367 W/m² -
1788081183 31.11° C 69% 1007.7 hPa 0 mm 1.79 m/s, 220° 1102 W/m² -
1788081122 31.11° C 70% 1007.8 hPa 0 mm 1.79 m/s, 327° 661 W/m² -
1788081061 31.11° C 69% 1007.8 hPa 0 mm 2.68 m/s, 284° 731 W/m² -
1788081000 31.11° C 69% 1007.7 hPa 0 mm 0.89 m/s, 247° 290 W/m² -
1788080939 31.11° C 69% 1007.8 hPa 0 mm 1.34 m/s, 275° 263 W/m² -
1788080878 31.11° C 69% 1007.7 hPa 0 mm 1.79 m/s, 245° 961 W/m² -
1788080817 31.11° C 69% 1007.8 hPa 0 mm 1.79 m/s, 151° 1106 W/m² -
1788080756 30.56° C 69% 1007.7 hPa 0 mm 1.79 m/s, 3° 1106 W/m² -
1788080695 30.56° C 69% 1007.7 hPa 0 mm 1.79 m/s, 332° 1106 W/m² -
1788080634 30.56° C 70% 1007.8 hPa 0 mm 2.68 m/s, 294° 1103 W/m² -
1788080573 30.56° C 71% 1007.6 hPa 0 mm 0.89 m/s, 178° 884 W/m² -
1788080512 30.56° C 71% 1007.9 hPa 0 mm 0.45 m/s, 257° 881 W/m² -
1788080451 30.56° C 71% 1007.7 hPa 0 mm 1.79 m/s, 216° 759 W/m² -
1788080390 30.56° C 71% 1007.7 hPa 0 mm 1.34 m/s, 267° 350 W/m² -
1788080329 30.56° C 71% 1008 hPa 0 mm 1.79 m/s, 222° 567 W/m² -
1788080269 30.56° C 70% 1007.8 hPa 0 mm 4.02 m/s, 223° 606 W/m² -
1788080215 30.56° C 69% 1007.8 hPa 0 mm 1.34 m/s, 274° 338 W/m² -
1788080146 30.56° C 69% 1007.9 hPa 0 mm 2.24 m/s, 220° 401 W/m² -
1788080085 30.56° C 70% 1008 hPa 0 mm 1.79 m/s, 156° 279 W/m² -
1788080024 30.56° C 71% 1007.9 hPa 0 mm 0.45 m/s, 230° 692 W/m² -
1788079964 30.56° C 70% 1008 hPa 0 mm 1.34 m/s, 279° 435 W/m² -
1788079903 30.56° C 70% 1007.9 hPa 0 mm 2.68 m/s, 241° 426 W/m² -
1788079842 30.56° C 69% 1007.9 hPa 0 mm 2.24 m/s, 324° 678 W/m² -
1788079780 31.11° C 70% 1008 hPa 0 mm 1.79 m/s, 289° 392 W/m² -

* Rain latest hour (hover to see other rain measurements)
** Current wind speed in m/s (hover to see current wind gust speed)